Weather History for Lyndonville, VT

Change the Weather History Date:

Wednesday, February 20, 2013

  Actual Average (K1V4) Record (K1V4)
Temperature  
Mean Temperature 26 °F 21 °F  
Max Temperature 32 °F 32 °F 60 °F (1981)
Min Temperature 19 °F 9 °F -23 °F (1903)
Degree Days  
Heating Degree Days 39 44  
Month to date heating degree days 932  
Since 1 July heating degree days 5381  
Moisture  
Dew Point 18 °F    
Average Humidity 74    
Maximum Humidity 94    
Minimum Humidity 59    
Precipitation  
Precipitation 0.00 in 0.07 in 0.80 in (1946)
Month to date precipitation 1.57  
Year to date precipitation 4.08  
Sea Level Pressure  
Sea Level Pressure 29.57 in    
Wind  
Wind Speed 7 mph (West)    
Max Wind Speed 21 mph    
Max Gust Speed 28 mph    
Visibility 6 miles    
Events Snow    
T = Trace of Precipitation, MM = Missing Value Source: NWS Daily Summary

Daily Weather History Graph

Daily Weather History Graph

Search for Another Location

Airport:

Trip Planner

Search our weather history database for the weather conditions in past years. The results will help you decide how hot, cold, wet, or windy it might be!

Date:

Astronomy

Feb. 20, 2013 Rise Set
Actual Time 6:40 AM EST 5:24 PM EST
Civil Twilight 6:10 AM EST 5:53 PM EST
Nautical Twilight 5:36 AM EST 6:27 PM EST
Astronomical Twilight 5:02 AM EST 7:01 PM EST
Moon 12:35 PM EST (2/20) 3:05 AM EST (2/20)
Length of Visible Light 11h 43m
Length of Day
10h 43m
Waxing Gibbous, 76% of the Moon is Illuminated
Feb 20
Waxing Gibbous
Feb 25
Full
Mar 4
Last Quarter
Mar 11
New
Mar 19
First Quarter

Hourly Weather History & Observations

Time (EST) Temp. Windchill Dew Point Humidity Pressure Visibility Wind Dir Wind Speed Gust Speed Precip Events Conditions
12:15 AM 32.0 °F - 29.8 °F 92% 29.54 in 1.0 mi Calm Calm - N/A Snow Snow
12:35 AM 32.0 °F - 29.8 °F 92% 29.54 in 0.5 mi Calm Calm - N/A Snow Snow
1:15 AM 32.2 °F - 30.7 °F 94% 29.52 in 1.0 mi Calm Calm - N/A Snow Snow
1:35 AM 32.0 °F 23.6 °F 30.2 °F 93% 29.52 in 1.5 mi NW 10.4 mph - N/A Snow Light Snow
1:55 AM 31.6 °F 24.4 °F 28.4 °F 88% 29.52 in 1.8 mi WNW 8.1 mph - N/A Snow Light Snow
2:15 AM 30.9 °F 22.8 °F 25.9 °F 82% 29.52 in 4.0 mi WNW 9.2 mph 18.4 mph N/A Snow Light Snow
2:35 AM 30.0 °F 21.7 °F 25.5 °F 83% 29.52 in 4.0 mi WNW 9.2 mph - N/A Snow Light Snow
2:55 AM 29.3 °F 23.2 °F 25.5 °F 86% 29.52 in 3.0 mi West 5.8 mph - N/A Snow Light Snow
3:15 AM 28.2 °F 18.3 °F 24.6 °F 86% 29.52 in 1.8 mi West 11.5 mph 19.6 mph N/A Snow Light Snow
3:55 AM 26.6 °F 16.8 °F 22.5 °F 84% 29.52 in 2.5 mi West 10.4 mph 18.4 mph N/A Snow Light Snow
4:15 AM 26.1 °F 15.6 °F 21.7 °F 84% 29.52 in 1.8 mi West 11.5 mph 18.4 mph N/A Snow Light Snow
4:35 AM 25.7 °F 15.7 °F 21.4 °F 84% 29.53 in 2.5 mi West 10.4 mph 17.3 mph N/A Snow Light Snow
4:55 AM 25.7 °F 16.4 °F 21.0 °F 82% 29.53 in 2.5 mi West 9.2 mph 16.1 mph N/A Snow Light Snow
5:15 AM 25.7 °F 14.6 °F 20.5 °F 81% 29.54 in 3.0 mi West 12.7 mph 18.4 mph N/A Snow Light Snow
5:35 AM 25.7 °F 15.7 °F 20.1 °F 79% 29.53 in 10.0 mi West 10.4 mph - N/A   Unknown
5:55 AM 25.7 °F 16.4 °F 19.6 °F 78% 29.54 in 10.0 mi West 9.2 mph - N/A   Unknown
6:15 AM 26.1 °F 20.5 °F 19.2 °F 75% 29.54 in 10.0 mi WSW 4.6 mph - N/A   Unknown
6:35 AM 25.9 °F 18.2 °F 19.0 °F 75% 29.54 in 10.0 mi West 6.9 mph - N/A   Unknown
6:55 AM 25.5 °F 16.9 °F 18.7 °F 75% 29.54 in 10.0 mi West 8.1 mph - N/A   Unknown
7:15 AM 25.3 °F 18.5 °F 18.0 °F 74% 29.54 in 10.0 mi West 5.8 mph - N/A   Unknown
7:35 AM 24.8 °F 16.9 °F 18.1 °F 76% 29.54 in 10.0 mi West 6.9 mph - N/A   Unknown
8:15 AM 25.5 °F 14.9 °F 17.4 °F 71% 29.54 in 10.0 mi West 11.5 mph 17.3 mph N/A   Unknown
8:35 AM 25.7 °F 19.0 °F 17.2 °F 70% 29.54 in 10.0 mi West 5.8 mph 9.2 mph N/A   Unknown
8:55 AM 26.2 °F 18.6 °F 16.0 °F 65% 29.54 in 10.0 mi West 6.9 mph - N/A   Unknown
9:15 AM 26.1 °F 15.0 °F 16.2 °F 66% 29.54 in 10.0 mi West 12.7 mph - N/A   Unknown
9:35 AM 26.2 °F 16.4 °F 15.8 °F 65% 29.54 in 10.0 mi West 10.4 mph - N/A   Unknown
9:55 AM 26.1 °F 14.5 °F 15.1 °F 63% 29.54 in 10.0 mi West 13.8 mph 21.9 mph N/A   Unknown
10:15 AM 26.2 °F 17.1 °F 14.7 °F 62% 29.54 in 10.0 mi West 9.2 mph - N/A   Unknown
10:35 AM 26.1 °F 15.6 °F 14.7 °F 62% 29.54 in 10.0 mi West 11.5 mph 20.7 mph N/A   Unknown
10:55 AM 26.1 °F 14.5 °F 14.0 °F 60% 29.54 in 10.0 mi West 13.8 mph 25.3 mph N/A   Unknown
11:15 AM 26.2 °F 14.7 °F 13.8 °F 59% 29.54 in 10.0 mi WNW 13.8 mph 18.4 mph N/A   Unknown
11:35 AM 26.2 °F 16.4 °F 13.8 °F 59% 29.54 in 10.0 mi West 10.4 mph 21.9 mph N/A   Unknown
11:55 AM 26.6 °F 16.8 °F 14.2 °F 60% 29.54 in 10.0 mi West 10.4 mph 17.3 mph N/A   Unknown
12:15 PM 26.2 °F 13.8 °F 13.6 °F 59% 29.54 in 10.0 mi WSW 16.1 mph 25.3 mph N/A   Unknown
12:55 PM 25.5 °F 13.8 °F 13.1 °F 59% 29.54 in 10.0 mi West 13.8 mph 23.0 mph N/A   Unknown
1:15 PM 25.3 °F 13.6 °F 14.0 °F 62% 29.54 in 10.0 mi West 13.8 mph 19.6 mph N/A   Unknown
1:35 PM 25.2 °F 14.4 °F 14.2 °F 63% 29.54 in 10.0 mi West 11.5 mph 18.4 mph N/A   Unknown
1:55 PM 24.8 °F 15.3 °F 13.8 °F 63% 29.54 in 10.0 mi West 9.2 mph 18.4 mph N/A   Unknown
2:15 PM 24.8 °F 16.1 °F 14.0 °F 64% 29.54 in 7.0 mi West 8.1 mph 20.7 mph N/A Snow Light Snow
2:35 PM 24.6 °F 15.1 °F 14.4 °F 65% 29.55 in 5.0 mi West 9.2 mph - N/A Snow Light Snow
2:55 PM 24.4 °F 15.6 °F 14.9 °F 67% 29.55 in 4.0 mi WSW 8.1 mph - N/A Snow Light Snow
3:15 PM 23.9 °F 15.8 °F 15.8 °F 71% 29.56 in 2.5 mi West 6.9 mph - N/A Snow Light Snow
3:35 PM 23.5 °F 19.1 °F 17.2 °F 77% 29.56 in 1.8 mi WSW 3.5 mph - N/A Snow Light Snow
3:55 PM 23.4 °F 17.4 °F 17.6 °F 79% 29.57 in 1.2 mi West 4.6 mph - N/A Snow Light Snow
4:15 PM 23.0 °F - 18.7 °F 84% 29.57 in 0.8 mi Calm Calm - N/A Snow Light Snow
4:35 PM 23.0 °F - 18.9 °F 84% 29.58 in 1.5 mi Calm Calm - N/A Snow Light Snow
4:55 PM 23.0 °F 18.4 °F 19.2 °F 85% 29.58 in 2.0 mi WSW 3.5 mph - N/A Snow Light Snow
5:15 PM 23.4 °F 15.2 °F 17.1 °F 77% 29.59 in 5.0 mi West 6.9 mph - N/A Snow Light Snow
5:35 PM 23.0 °F 13.9 °F 16.0 °F 74% 29.60 in 10.0 mi West 8.1 mph - N/A Snow Light Snow
5:55 PM 22.6 °F 13.4 °F 16.3 °F 77% 29.60 in 7.0 mi WSW 8.1 mph - N/A Snow Light Snow
6:15 PM 22.5 °F 17.8 °F 16.0 °F 76% 29.61 in 7.0 mi West 3.5 mph - N/A Snow Light Snow
6:35 PM 22.1 °F 12.8 °F 14.9 °F 74% 29.61 in 10.0 mi West 8.1 mph - N/A   Unknown
6:55 PM 22.1 °F 10.6 °F 14.5 °F 73% 29.62 in 10.0 mi West 11.5 mph 17.3 mph N/A   Unknown
7:15 PM 22.1 °F 12.0 °F 14.7 °F 73% 29.62 in 7.0 mi WSW 9.2 mph 18.4 mph N/A   Unknown
7:35 PM 21.9 °F 10.4 °F 14.5 °F 73% 29.61 in 7.0 mi West 11.5 mph 20.7 mph N/A Snow Light Snow
7:55 PM 21.6 °F 11.3 °F 14.4 °F 74% 29.62 in 7.0 mi West 9.2 mph 18.4 mph N/A   Unknown
8:15 PM 21.2 °F 10.9 °F 14.4 °F 75% 29.62 in 10.0 mi West 9.2 mph - N/A   Unknown
8:35 PM 20.8 °F 9.0 °F 14.0 °F 75% 29.62 in 7.0 mi West 11.5 mph 17.3 mph N/A   Unknown
8:55 PM 20.7 °F 9.5 °F 14.0 °F 75% 29.62 in 5.0 mi West 10.4 mph 18.4 mph N/A Snow Light Snow
9:15 PM 20.8 °F 9.7 °F 14.5 °F 77% 29.63 in 5.0 mi West 10.4 mph - N/A Snow Light Snow
9:35 PM 21.2 °F 10.1 °F 14.9 °F 77% 29.63 in 5.0 mi West 10.4 mph - N/A Snow Light Snow
9:55 PM 21.0 °F 12.4 °F 15.3 °F 78% 29.64 in 4.0 mi West 6.9 mph - N/A Snow Light Snow
10:15 PM 21.2 °F 10.9 °F 15.6 °F 79% 29.64 in 4.0 mi West 9.2 mph - N/A Snow Light Snow
10:35 PM 21.2 °F 13.6 °F 15.8 °F 80% 29.64 in 2.5 mi WSW 5.8 mph - N/A Snow Light Snow
11:15 PM 21.2 °F 5.6 °F 13.5 °F 72% 29.66 in 4.0 mi WSW 20.7 mph 26.5 mph N/A Snow Light Snow
11:35 PM 20.3 °F 7.7 °F 13.1 °F 74% 29.66 in 4.0 mi SW 12.7 mph 27.6 mph N/A Snow Light Snow
11:55 PM 19.9 °F 5.7 °F 12.0 °F 71% 29.66 in 5.0 mi SW 16.1 mph 25.3 mph N/A Snow Light Snow